KUIPER-00436

导读 | 豆包AI

KUIPER-00436(NORAD编号68939)是亚马逊柯伊伯(Kuiper)卫星互联网项目的运营卫星之一,属于近地轨道(LEO)卫星,是柯伊伯计划大规模组网的组成部分。 该项目目标是部署数千颗低轨卫星,构建覆盖全球的高速宽带网络,提供低延迟互联网接入服务,直接对标SpaceX星链(Starlink)。按照FCC要求,亚马逊需在2026年前完成过半卫星部署,KUIPER-00436是项目推进组网建设的一颗标准卫星,助力项目实现全球覆盖的商用目标。

Basic Information
目录编号:
68939
目录名称:
KUIPER-00436
国际标识:
2026-098W
轨道中心:
EARTH
卫星名称:
KUIPER-00436
卫星全名:
KUIPER-00436
卫星状态:
在轨 (已飞行25 天)
发射日期:
2026-04-30 UTC
国别 :
美国 (US)
星等 :
--
Orbit Information
数据来源 国际轨道数据
星历时间: 2026-05-23T20:12:56+0800
1天前
查看轨道信息
半长轴: 6844.749km
偏心率: 0.0011077
轨道倾角: 51.876°
近地点辐角 58.864°
升交点赤经 186.852°
平近点角 301.343°
近地点: 459.03km
远地点: 474.194km
周期: 93.928分钟
每日圈数: 15.33086
Detailed Information
使用方式:
暂无
2D Orbit Map
3D Orbit Map
Orbit Altitude Analysis Chart
Orbit Inclination Analysis Chart
Orbit Comprehensive Analysis Chart
View Comprehensive Chart